Regional Weather Roundup
Issued by NWS

Home | Current Version | Previous Version | Text Only | Print | Product List | Glossary On
Versions: 1 2 3 4 5 6 7 8 9 10 11 12 13 14 15 16 17 18 19 20 21 22 23 24 25 26 27 28 29 30 31 32 33 34 35 36 37 38 39 40 41 42 43 44 45 46 47 48 49 50
000
ASUS43 KLMK 011510
RWRKY
KENTUCKY REGIONAL WEATHER ROUNDUP
NATIONAL WEATHER SERVICE LOUISVILLE KY
1100 AM EDT WED APR 01 2015

NOTE "FAIR" INDICATES FEW OR NO CLOUDS BELOW 12,000 FEET
WITH NO SIGNIFICANT WEATHER AND/OR OBSTRUCTIONS TO VISIBILITY.

KYZ001>023-026-027-061>063-070>075-011600-
WESTERN AND SOUTH CENTRAL KENTUCKY

CITY           SKY/WX    TMP DP  RH WIND       PRES   REMARKS
PADUCAH        MOSUNNY   63  39  41 SE8       30.08R
HENDERSON      SUNNY     59  36  41 S14       30.11R
OWENSBORO      SUNNY     59  39  47 SE10      30.12S
HOPKINSVILLE   SUNNY     62  36  37 E15       30.09S
BOWLING GREEN  SUNNY     60  37  42 SE7       30.13R
GLASGOW        SUNNY     59  35  40 E8        30.13S
$$

KYZ024-025-028>034-038-045-046-053-011600-
NORTH CENTRAL KENTUCKY

CITY           SKY/WX    TMP DP  RH WIND       PRES   REMARKS
LOUISVILLE/SDF MOSUNNY   56  36  47 SE7       30.15R
LOUISVILLE/LOU SUNNY     54  36  50 SE7       30.15S
FORT KNOX      SUNNY     57  33  40 E7        30.13R
$$

KYZ035>037-039>044-047>052-055>060-089>105-011600-
NORTHEAST KENTUCKY

CITY           SKY/WX    TMP DP  RH WIND       PRES   REMARKS
LEXINGTON      SUNNY     53  33  46 SE3       30.16S
COVINGTON      SUNNY     51  36  56 S8        30.17R
FRANKFORT      SUNNY     53  34  48 VRB3      30.15S
$$

KYZ054-064>069-076>088-106>120-011600-
SOUTHEAST KENTUCKY

CITY           SKY/WX    TMP DP  RH WIND       PRES   REMARKS
JACKSON        SUNNY     50  30  46 VRB3      30.17R
LONDON         SUNNY     55  32  41 SE7       30.15S
SOMERSET       SUNNY     54  34  47 E3        30.16R
MIDDLESBORO    SUNNY     55  36  47 CALM      30.15S
MONTICELLO     SUNNY     57  36  45 E6        30.17R
$$



USA.gov is the U.S. government's official web portal to all federal, state and local government web resources and services.